#timestamp,LO_Frequency,Hit,StdDev 
1617880835.4,286046991.5,P
1617880855.2,286046988.9,P
1617880875.1,286046989.8,P
1617880876.0,286046989.8,Y
1617880895.8,286046996.6,P
1617880915.7,286046997.3,N
1617880935.5,286046999.3,N
1617880955.3,286046997.3,N
1617880975.2,286046997.7,N
1617880995.0,286046997.1,N
1617880995.9,286046997.1,N
1617881015.8,286047001.2,N
1617881035.6,286046999.4,N
1617881055.4,286046996.7,N
1617881075.3,286046994.9,N
1617881095.1,286046996.2,N
1617881115.8,286046995.1,N
1617881135.7,286046996.9,N
1617881155.5,286046995.6,N
1617881175.4,286046995.8,N
1617881195.2,286046998.0,N
1617881215.0,286046997.8,N
1617881215.9,286046997.8,N
1617881235.8,286046996.6,N
1617881255.6,286046995.2,N
1617881275.4,286046996.3,N
1617881295.3,286046993.7,Y
1617881315.1,286046997.6,P
1617881335.9,286046995.2,P
1617881355.7,286046993.5,P
1617881375.5,286046993.4,Y
1617881395.4,286046997.0,P
1617881415.2,286046996.8,P
1617881435.1,286046999.1,N
1617881436.0,286046999.1,N
1617881455.8,286046996.8,N
1617881475.6,286046994.9,Y
1617881495.5,286047000.8,P
1617881515.3,286046999.7,N
1617881535.1,286047000.4,N
1617881555.9,286046998.1,N
1617881575.7,286047000.8,N
1617881595.6,286047001.1,N
1617881615.4,286046999.3,N
1617881635.2,286046999.1,N
1617881655.1,286046999.0,N
1617881656.0,286046999.0,N
1617881675.8,286046996.9,N
1617881695.6,286046996.7,N
1617881715.5,286046998.8,N
1617881735.3,286046997.6,N
1617881755.2,286046998.0,N
1617881775.9,286046997.2,N
1617881795.7,286046995.4,Y
1617881815.6,286046997.8,P
1617881835.4,286046997.3,P
1617881855.2,286046999.3,N
1617881875.1,286047000.0,N
1617881876.0,286047000.0,N
1617881895.8,286047000.9,N
1617881915.7,286046998.5,N
1617881935.5,286046998.9,N
1617881955.3,286047000.5,N
1617881975.2,286047000.4,N
1617881995.0,286046998.5,N
1617881995.9,286046998.5,N
1617882015.8,286046998.7,N
1617882035.6,286046996.5,Y
1617882055.4,286046999.2,P
1617882075.3,286046997.0,P
1617882095.1,286046999.4,N
1617882115.8,286046999.4,N
1617882135.7,286046997.6,N
1617882155.5,286046997.8,N
1617882175.4,286046999.6,N
1617882195.2,286046997.3,N
1617882215.0,286046997.8,N
1617882215.9,286046997.8,N
1617882235.8,286046995.6,Y
1617882255.6,286046997.7,P
1617882275.5,286046995.3,P
1617882295.3,286046993.6,P
1617882315.1,286046996.4,N
1617882335.9,286046996.1,N
1617882355.7,286046994.0,Y
1617882375.5,286046999.2,P
1617882395.4,286046997.3,N
1617882415.2,286046997.2,N
1617882435.1,286046994.0,Y
1617882436.0,286046994.0,P
1617882455.8,286046996.3,N
1617882475.6,286046994.5,P
1617882495.5,286046994.8,Y
1617882515.3,286046995.1,P
1617882535.1,286046995.1,P
1617882555.9,286046996.1,P
1617882575.7,286046993.5,Y
1617882595.6,286046996.8,P
1617882615.4,286046995.3,P
1617882635.2,286046995.0,P
1617882655.1,286046999.4,N
1617882656.0,286046999.4,N
1617882675.8,286046996.6,N
1617882695.7,286046997.0,N
1617882715.5,286046994.9,Y
1617882735.3,286046996.8,P
1617882755.2,286046997.0,P
1617882775.0,286046997.7,P
1617882775.9,286046997.7,Y
1617882795.8,286047000.9,P
1617882815.6,286046998.3,N
1617882835.4,286046998.2,N
1617882855.3,286046999.1,N
1617882875.1,286046999.0,N
1617882895.9,286046997.0,N
1617882915.7,286046996.9,N
1617882935.5,286046997.1,N
1617882955.4,286046997.1,N
1617882975.2,286046999.2,N
1617882995.0,286046997.6,N
1617882995.9,286046997.6,N
1617883015.8,286046995.7,Y
1617883035.6,286046997.1,P
1617883055.5,286046997.7,P
1617883075.3,286046997.5,P
1617883095.1,286046996.1,Y
1617883115.9,286046996.7,P
1617883135.7,286046997.8,P
1617883155.6,286046997.1,P
1617883175.4,286046997.4,Y
1617883195.2,286046998.6,P
